Blackpool, United Kingdom

11:39 AM GMT on December 05, 2016 (GMT +0000)
Blackpool

Weather History for EGNH - November, 2012

Change the Weather History Date:

Thursday, November 22, 2012

  Actual Average Record
Temperature  
Mean Temperature 49 °F -  
Max Temperature 53 °F 47 °F 55 °F (2014)
Min Temperature 44 °F 39 °F 30 °F (2015)
Degree Days  
Heating Degree Days 16    
Moisture  
Dew Point 46 °F    
Average Humidity 89    
Maximum Humidity 94    
Minimum Humidity 77    
Precipitation  
Precipitation 0.59 in - - ()
Sea Level Pressure  
Sea Level Pressure 29.48 in    
Wind  
Wind Speed 20 mph ()    
Max Wind Speed 29 mph    
Max Gust Speed 40 mph    
Visibility 5.1 miles    
Events Rain    
Averages and records for this station are not official NWS values.
T = Trace of Precipitation, MM = Missing Value Source: Averaged Metar Reports

Daily Weather History Graph

Daily Weather History Graph

Search for Another Location

Airport or City:

Trip Planner

Search our weather history database for the weather conditions in past years. The results will help you decide how hot, cold, wet, or windy it might be!

Date:

Astronomy

Nov. 22, 2012 Rise Set
Actual Time 7:52 AM GMT 4:03 PM GMT
Civil Twilight 7:11 AM GMT 4:44 PM GMT
Nautical Twilight 6:27 AM GMT 5:28 PM GMT
Astronomical Twilight 5:45 AM GMT 6:10 PM GMT
Moon 1:25 PM GMT (11/22) 1:09 AM GMT (11/22)
Length of Visible Light 9h 32m
Length of Day
8h 11m
Waxing Gibbous, 69% of the Moon is Illuminated
Nov 22
Waxing Gibbous
Nov 28
Full
Dec 6
Last Quarter
Dec 13
New
Dec 20
First Quarter

Hourly Weather History & Observations

Time (GMT) Temp. Windchill Dew Point Humidity Pressure Visibility Wind Dir Wind Speed Gust Speed Precip Events Conditions
2:50 AM 45 °F - 42 °F 86%  in - SE 17.3 mph - -  
5:50 AM 47 °F - 45 °F 90%  in - SSE 19.6 mph - -  
6:20 AM 48.2 °F - 46.4 °F 93% 29.62 in 6.2 mi SSE 19.6 mph - N/A   Mostly Cloudy
6:50 AM 50.0 °F - 46.4 °F 87% 29.62 in 6.2 mi SSE 21.9 mph - N/A Rain Light Rain
7:20 AM 50.0 °F - 48.2 °F 94% 29.59 in 6.2 mi SSE 21.9 mph - N/A   Scattered Clouds
7:50 AM 50.0 °F - 48.2 °F 94% 29.59 in 6.2 mi SSE 23.0 mph - N/A   Mostly Cloudy
8:20 AM 51.8 °F - 48.2 °F 88% 29.59 in 6.2 mi SSE 24.2 mph - N/A Rain Light Rain
8:50 AM 51 °F - 46 °F 79%  in - SSE 23.0 mph - -  
8:50 AM 51.8 °F - 48.2 °F 88% 29.56 in 6.2 mi SSE 23.0 mph - N/A   Mostly Cloudy
9:20 AM 51.8 °F - 48.2 °F 88% 29.56 in 6.2 mi SSE 26.5 mph - N/A   Mostly Cloudy
9:50 AM 51.8 °F - 46.4 °F 82% 29.53 in 6.2 mi SSE 28.8 mph 40.3 mph N/A   Mostly Cloudy
10:20 AM 53.6 °F - 48.2 °F 82% 29.53 in 6.2 mi SSE 28.8 mph - N/A   Mostly Cloudy
10:50 AM 53.6 °F - 48.2 °F 82% 29.53 in 4.3 mi SSE 25.3 mph - N/A Rain Rain
11:20 AM 51.8 °F - 48.2 °F 88% 29.50 in 6.2 mi South 21.9 mph - N/A   Mostly Cloudy
11:50 AM 52 °F - 48 °F 82%  in - South 24.2 mph - -  
11:50 AM 51.8 °F - 50.0 °F 94% 29.47 in 5.6 mi South 26.5 mph - N/A Rain Light Rain
12:20 PM 51.8 °F - 50.0 °F 94% 29.47 in 4.3 mi South 20.7 mph - N/A Rain Rain
12:50 PM 51.8 °F - 50.0 °F 94% 29.44 in 4.3 mi South 17.3 mph - N/A Rain Rain
1:20 PM 51.8 °F - 50.0 °F 94% 29.42 in 2.8 mi South 21.9 mph - N/A Rain Rain
1:50 PM 51.8 °F - 50.0 °F 94% 29.39 in 2.8 mi South 26.5 mph 39.1 mph N/A Rain Rain
2:20 PM 53.6 °F - 50.0 °F 88% 29.36 in 2.8 mi South 26.5 mph - N/A Rain Rain
2:50 PM 53 °F - 49 °F 81%  in - South 26.5 mph - -  
2:50 PM 51.8 °F - 50.0 °F 94% 29.36 in 3.1 mi South 28.8 mph 40.3 mph N/A Rain Rain
3:20 PM 51.8 °F - 50.0 °F 94% 29.36 in 2.5 mi South 26.5 mph - N/A Rain Rain
3:50 PM 50.0 °F - 48.2 °F 94% 29.36 in 2.8 mi WSW 23.0 mph - N/A Rain Rain
4:20 PM 48.2 °F - 46.4 °F 93% 29.42 in 3.7 mi WSW 18.4 mph - N/A Rain Rain
4:50 PM 46.4 °F 38.1 °F 44.6 °F 93% 29.42 in 3.7 mi WSW 24.2 mph - N/A Rain Rain
5:20 PM 46.4 °F 39.0 °F 44.6 °F 93% 29.44 in 3.7 mi SSW 19.6 mph - N/A Rain Rain
5:50 PM 47 °F - 44 °F 85%  in - SSW 17.3 mph - -  
5:50 PM 46.4 °F 39.5 °F 44.6 °F 93% 29.44 in 6.2 mi SSW 17.3 mph - N/A   Partly Cloudy
6:20 PM 46.4 °F 39.8 °F 44.6 °F 93% 29.44 in 6.2 mi SSW 16.1 mph - N/A   Mostly Cloudy
6:50 PM 46.4 °F 38.7 °F 42.8 °F 87% 29.44 in 6.2 mi SW 20.7 mph - N/A   Mostly Cloudy
7:20 PM 46.4 °F 39.5 °F 42.8 °F 87% 29.47 in 6.2 mi SSW 17.3 mph - N/A   Mostly Cloudy
7:50 PM 46.4 °F 39.5 °F 42.8 °F 87% 29.47 in 6.2 mi SSW 17.3 mph - N/A   Partly Cloudy
8:20 PM 46.4 °F 39.8 °F 42.8 °F 87% 29.47 in 6.2 mi South 16.1 mph - N/A   Mostly Cloudy
8:50 PM 46 °F - 41 °F 77%  in - South 16.1 mph - -  
8:50 PM 46.4 °F 40.1 °F 42.8 °F 87% 29.47 in 6.2 mi South 15.0 mph - N/A   Scattered Clouds
11:50 PM 44 °F - 40 °F 81%  in - South 15.0 mph - -